OpenBCM V1.08-5-g2f4a (Linux)

Packet Radio Mailbox

IZ3LSV

[San Dona' di P. JN]

 Login: GUEST





  
I0OJJ  > KEPS     23.09.25 18:00l 311 Lines 14846 Bytes #95 (0) @ AMSAT
BID : ORB25264.1
Read: GUEST
Subj: 2Line Orbital Elements 25264.AMSAT
Path: IZ3LSV<IW0QNL<HB9ON<DK0WUE<PD0LPM<PI8ZTM<VK2IO<VK3AT<VE3QBZ<VE3CGR<
      VE3TOK<IR0AAB<I0OJJ
Sent: 250921/0025z @:I0OJJ.ITA.EU [Rome] obcm1.08-10-g596e
From: I0OJJ @ I0OJJ.ITA.EU (Gustavo)
To:   KEPS @ AMSAT
X-Info: This message was generated automatically


QST de W1STR

AMSAT Orbital Elements for Amateur Satellites in TLE Format
From Orbital Analysis Office
New England Sci-Tech STEM Education Center
Natick MA September 21, 2025
To all radio amateurs


These element sets describe the orbits of various satellites 
in use by the amateur radio community. For details see:
www.amsat.org/keplerian-elements-formats/

A daily update of element sets is available at:
www.amsat.org/tle/daily-bulletin.txt
or without bulletin text:
www.amsat.org/tle/dailytle.txt


AO-07
1 07530U 74089B   25263.01798794 -.00000024  00000-0  14290-3 0  9992
2 07530 101.9986 268.3872 0011915 287.6089  93.2835 12.53691679326666
UO-11
1 14781U 84021B   25262.84474195  .00001759  00000-0  18953-3 0  9996
2 14781  97.7666 227.2669 0008004  10.9222 349.2168 14.89683863216868
AO-27
1 22825U 93061C   25263.15482983  .00000114  00000-0  60509-4 0  9996
2 22825  98.7268 325.1734 0008691 165.3803 194.7632 14.30830075668380
FO-29
1 24278U 96046B   25263.07985035  .00000000  00000-0  33327-4 0  9995
2 24278  98.5576 143.4107 0350905  77.0232 286.9842 13.53253804436633
NOAA-15
1 25338U 98030A   25263.11217875  .00000159  00000-0  82792-4 0  9998
2 25338  98.5316 285.7580 0011266  62.3886 297.8437 14.27018074422775
GO-32
1 25397U 98043D   25262.90278201  .00000090  00000-0  58925-4 0  9998
2 25397  98.9824 244.2115 0000278 307.7210  52.3943 14.24339818412853
ISS
1 25544U 98067A   25263.15311495  .00015260  00000-0  27067-3 0  9996
2 25544  51.6337 196.3707 0004371 358.2759   1.8214 15.50431661529895
NO-44
1 26931U 01043C   25262.98357103  .00000184  00000-0  99978-4 0  9991
2 26931  67.0498 223.0610 0007077 275.0567  84.9727 14.31780761251760
SO-50
1 27607U 02058C   25263.00437541  .00001992  00000-0  26009-3 0  9990
2 27607  64.5512 244.3029 0066671 312.5460  47.0028 14.81903942224402
CO-55
1 27844U 03031E   25262.98263803  .00000346  00000-0  16951-3 0  9996
2 27844  98.6791 269.9514 0008492 247.9625 112.0652 14.24070871153214
CO-57
1 27848U 03031J   25262.97922336  .00000288  00000-0  14620-3 0  9998
2 27848  98.6822 269.8757 0008331 267.9870  92.0355 14.23395003152938
RS-22
1 27939U 03042A   25263.14594337  .00001274  00000-0  20839-3 0  9992
2 27939  98.3370  75.1489 0012260  49.0107  16.7507 14.72596788175790
CO-58
1 28895U 05043F   25262.94714551  .00001783  00000-0  29630-3 0  9999
2 28895  98.2643  48.6807 0014048 347.0722  13.0122 14.71356561 61994
CO-65
1 32785U 08021C   25263.20186197  .00006656  00000-0  46723-3 0  9996
2 32785  97.7967 235.2525 0008277 216.0584 144.0085 15.05464420944512
CO-66
1 32791U 08021J   25262.95115328  .00014798  00000-0  66533-3 0  9999
2 32791  97.7372 245.4984 0004871 138.9854 221.1748 15.21222188946043
RS-30
1 32953U 08025A   25263.25411181  .00000013  00000-0  19722-4 0  9997
2 32953  82.5066 163.3434 0018735 178.4184 181.6958 12.43168092786153
NOAA-19
1 33591U 09005A   25263.13402682  .00000106  00000-0  80209-4 0  9999
2 33591  98.9880 328.3701 0014748  75.7176 284.5633 14.13408321856339
SRMSAT
1 37841U 11058D   25263.10602351  .00000433  00000-0  91397-4 0  9997
2 37841  19.9714 254.1085 0011964 112.4908 308.9619 14.11465835719615
ZACUBE-1
1 39417U 13066B   25263.11669469  .00005555  00000-0  47077-3 0  9998
2 39417  97.7910 219.6969 0045593  69.9767 290.6355 14.97567615640259
Delfi-N3xt
1 39428U 13066N   25263.04651176  .00009595  00000-0  94450-3 0  9993
2 39428  97.8291 179.5997 0083769  24.1325 336.3781 14.89655495634326
GOMX-1
1 39430U 13066Q   25263.28560163  .00002204  00000-0  34589-3 0  9994
2 39430  97.6712 115.6179 0130521 223.2018 135.8892 14.68018509630291
LO-74
1 39440U 13066AA  25263.27137951  .00004243  00000-0  42357-3 0  9996
2 39440  97.8562 207.2019 0060310 199.3460 160.5468 14.90706408636736
AO-73
1 39444U 13066AE  25263.14324239  .00008997  00000-0  64754-3 0  9998
2 39444  97.7926 225.5906 0042700  42.9492 317.5054 15.03705077638993
DTUSAT-2
1 40030U 14033W   25262.88228561  .00008564  00000-0  53600-3 0  9995
2 40030  98.0661 239.7999 0011008  77.4328 282.8130 15.09616339611823
EO-80
1 40032U 14033Y   25262.89716521  .00008677  00000-0  54194-3 0  9990
2 40032  98.0534 239.3277 0009128  28.0095 332.1622 15.09706248611804
LILACSAT-2
1 40908U 15049K   25263.33839351  .00013469  00000-0  32499-3 0  9996
2 40908  97.5022 286.3108 0010133 141.3636 218.8337 15.41282635554045
IO-86
1 40931U 15052B   25151.18580175  .00001241  00000-0  78118-4 0  9996
2 40931   6.0006  24.0987 0012733 338.8432  21.1169 14.78805930523159
Horyu-4
1 41340U 16012D   25263.01283692  .00032016  00000-0  72877-3 0  9997
2 41340  30.9958 160.8715 0005577  35.5528 324.5490 15.41712593528581
Lapan A3
1 41603U 16040E   25263.30026975  .00004076  00000-0  14031-3 0  9994
2 41603  97.1418 263.9455 0008784 260.6213  99.4035 15.30561561513492
CAS-2T
1 41847U 16066G   25263.12301317  .00001412  00000-0  21008-3 0  9991
2 41847  98.4126 336.6716 0344397 228.0702 129.0657 14.43727674465818
CAS-4B
1 42759U 17034B   25263.17009332  .00247107  29237-4  96590-3 0  9995
2 42759  42.9997  62.8303 0024196 300.7027  59.1463 15.85814587458740
CAS-4A
1 42761U 17034D   25262.50336519  .00282967  37153-4  91727-3 0  9990
2 42761  43.0032  62.2443 0024642 302.6304  57.2193 15.89496390458672
TechnoSat
1 42829U 17042E   25263.03799340  .00003119  00000-0  23941-3 0  9998
2 42829  97.4006  66.9419 0016150 299.3225  60.6387 15.02378649446103
AO-91
1 43017U 17073E   25263.08105319  .00007673  00000-0  38104-3 0  9990
2 43017  97.5079 131.2869 0167931 176.3051 183.9462 15.06373397424630
S-Net D
1 43186U 18014G   25262.79427346  .00004977  00000-0  28701-3 0  9993
2 43186  97.5505 164.6549 0007273 224.7365 135.3280 15.12806825417820
S-Net B
1 43187U 18014H   25262.99947008  .00005638  00000-0  32473-3 0  9994
2 43187  97.5511 164.8349 0008123 219.0870 140.9775 15.12787866417858
S-Net A
1 43188U 18014J   25262.72815194  .00005089  00000-0  29331-3 0  9995
2 43188  97.5519 164.7303 0007960 220.8565 139.2070 15.12811746417815
S-Net C
1 43189U 18014K   25262.73754230  .00005476  00000-0  31549-3 0  9994
2 43189  97.5536 164.7711 0009681 213.9423 146.1190 15.12780235416363
Ten-Koh
1 43677U 18084G   25262.93883390  .00002325  00000-0  18702-3 0  9991
2 43677  98.0795  79.2539 0006093 275.8280  84.2248 15.01036062375593
PO-101
1 43678U 18084H   25263.28533384  .00002279  00000-0  19443-3 0  9997
2 43678  98.1071  83.4002 0008269 309.2026  50.8461 14.98776280375764
QO-100
1 43700U 18090A   25263.11989043  .00000000  00000-0  00000-0 0  9995
2 43700   0.0266 179.2822 0001245  30.2121 218.7348  1.00268858 24964
MinXSS-2
1 43758U 18099A   25263.13510464  .00019789  00000-0  70339-3 0  9995
2 43758  97.4925 329.6657 0012026 150.1821 210.0106 15.28973954372625
AO-95
1 43770U 18099N   25262.68645825  .00009674  00000-0  46436-3 0  9991
2 43770  97.4819 319.7045 0009747 208.3315 151.7391 15.19033076372047
SNUSat 2
1 43782U 18099AA  25263.09545761  .00008506  00000-0  44464-3 0  9990
2 43782  97.4498 316.0021 0012632 152.9093 207.2801 15.16052087372022
SnugLite
1 43784U 18099AC  25262.69396338  .00009862  00000-0  46885-3 0  9996
2 43784  97.4316 315.3982 0004386 142.4108 217.7434 15.19389691372136
ITASat 1
1 43786U 18099AE  25263.08834427  .00007181  00000-0  39618-3 0  9996
2 43786  97.4471 315.1909 0013487 205.6505 154.4059 15.14178790371963
EAGLET 1
1 43790U 18099AJ  25263.10396009  .00004863  00000-0  30369-3 0  9991
2 43790  97.4663 314.7986 0011674 190.5836 169.5150 15.09877592371538
ESEO
1 43792U 18099AL  25263.07622860  .00002643  00000-0  20059-3 0  9995
2 43792  97.4368 306.6329 0012547 170.6605 189.4856 15.02967207371211
JO-97
1 43803U 18099AX  25263.15531071  .00013283  00000-0  56452-3 0  9998
2 43803  97.4564 321.4097 0008422 139.6014 220.5849 15.23139899372373
Suomi 100
1 43804U 18099AY  25263.14894425  .00011171  00000-0  51591-3 0  9996
2 43804  97.4630 320.3817 0013067 145.5840 214.6244 15.20293038372275
ISAT
1 43879U 18111D   25262.73259719  .00024620  00000-0  74703-3 0  9991
2 43879  97.5878 179.6151 0007704 173.5745 186.5598 15.34071989369330
UWE-4
1 43880U 18111E   25262.81423634  .00015946  00000-0  56740-3 0  9993
2 43880  97.5821 177.3934 0009970 197.1204 162.9700 15.29010868369238
Sparrow
1 43881U 18111F   25263.01519544  .00028707  00000-0  82852-3 0  9995
2 43881  97.6041 183.2131 0004233 204.4958 155.6084 15.35639957369488
Prox-1
1 44339U 19036A   25262.90464264  .00013761  00000-0  16583-2 0  9997
2 44339  23.9963 108.6623 0006554 156.3429 203.7370 14.82059738333203
Taurus 1
1 44530U 19059C   25263.28350433  .00007706  00000-0  13799-2 0  9997
2 44530  98.6176  47.6990 0009440  80.1920 280.0348 14.67091576318998
Duchifat 3
1 44854U 19089C   25262.84037689  .00092276  00000-0  11957-2 0  9995
2 44854  36.9379  60.4691 0006253  34.2476 325.8686 15.57651341318909
TO-108
1 44881U 19093C   25263.26865086  .00001109  00000-0  13355-3 0  9997
2 44881  97.7848 336.7431 0012382 252.6359 107.3503 14.85799883311326
FloripaSat 1
1 44885U 19093G   25263.28279316  .00005974  00000-0  49029-3 0  9999
2 44885  97.8167 351.1520 0008774 221.1750 138.8811 14.99565360312138
RS-44
1 44909U 19096E   25263.12746121  .00000026  00000-0  53893-4 0  9993
2 44909  82.5246 159.1666 0218446  55.9218 306.2406 12.79743594267809
UPMSat 2
1 46276U 20061E   25262.75480137  .00262684  28022-4  76923-3 0  9992
2 46276  97.2288 341.8491 0003461 223.3960 136.7043 15.92752850281573
